Location: Hilderbrand
(37.5756°N, 89.8540°W)
Time: 12:58:22
(UTC+00:00)

USA 215 - Pass Details

Date: 15 November 2025
Orbit: 1101 x 1106 km, 123.0° (Epoch: 02 December)

Event Time Altitude Azimuth Distance (km) Brightness Sun altitude
Rises 23:33:03 0° 127° (SE) 3,909 5.8 -9.2°
Reaches altitude 10° 23:35:32 10° 126° (SE) 2,955 5.2 -9.7°
Maximum altitude 23:42:02 75° 42° (NE) 1,141 3.2 -10.9°
Drops below altitude 10° 23:48:35 10° 318° (NW) 2,969 5.9 -12.1°
Sets 23:51:04 0° 317° (NW) 3,930 6.6 -12.6°
